INSAT-3DR

Last updated on Tue Sep 22 2026 00:02:53 GMT+0000 (Coordinated Universal Time)

1 41752U 16054A 26264.50371741 -.00000081 00000+0 00000+0 0 9991 2 41752 0.0496 94.6318 0011736 169.5506 351.5668 1.00272372 36783
UTC large
Height (km)
Speed (km/s)
/
Latitude / Longitude
Inclination (degrees)
Orbital Period (minutes)
Azimuth
Elevation
Range (km)
Doppler Factor

Next 0 passes for location: London (51.5072 / 0.1276)

No passes found over London.
INSAT-3DR